TERMEEREN Weather Reports


Display with metric or nautical units.
time (UTC)temp
F
wind
direction
speed
MPH
gust
MPH
rain 1hr
in
rain 24hr
in
rain mn
in
humidity
%
barometer
mb
20260510053502 52 311 1.0 4.0 0.00 0.00 0.00 84 1015.3
20260510052923 52 328 0.0 2.0 0.00 0.00 0.00 84 1015.3
20260510052429 52 323 0.0 3.0 0.00 0.00 0.00 84 1015.3
20260510051920 51 358 0.0 3.0 0.00 0.00 0.00 84 1015.2
20260510051432 51 313 0.0 3.0 0.00 0.00 0.00 84 1015.3
20260510050942 51 326 0.0 3.0 0.00 0.00 0.00 84 1015.3
20260510050410 51 10 0.0 2.0 0.00 0.00 0.00 84 1015.3
20260510045944 51 307 0.0 3.0 0.00 0.00 0.00 84 1015.3
20260510045426 51 299 0.0 4.0 0.00 0.00 0.00 84 1015.3
20260510044908 51 297 0.0 0.0 0.00 0.00 0.00 84 1015.3
20260510044516 51 349 0.0 0.0 0.00 0.00 0.00 84 1015.3
20260510044012 51 306 0.0 0.0 0.00 0.00 0.00 84 1015.3
20260510043433 51 293 0.0 0.0 0.00 0.00 0.00 84 1015.3
20260510042926 51 307 0.0 0.0 0.00 0.00 0.00 84 1015.3
20260510042417 51 358 0.0 0.0 0.00 0.00 0.00 83 1015.3
20260510041424 51 330 0.0 0.0 0.00 0.00 0.00 83 1015.2
20260510040908 51 339 0.0 0.0 0.00 0.00 0.00 83 1015.2
20260510040414 51 278 0.0 2.0 0.00 0.00 0.00 83 1015.2
20260510035906 51 347 0.0 2.0 0.00 0.00 0.00 82 1015.2
20260510035422 51 317 0.0 1.0 0.00 0.00 0.00 82 1015.1
20260510035103 51 293 0.0 0.0 0.00 0.00 0.00 82 1015.1
20260510034427 51 295 0.0 0.0 0.00 0.00 0.00 82 1015.2
20260510033928 51 270 0.0 0.0 0.00 0.00 0.00 82 1015.2
20260510033410 51 295 0.0 1.0 0.00 0.00 0.00 82 1015.3
20260510032923 51 311 0.0 2.0 0.00 0.00 0.00 82 1015.3
20260510032435 51 293 0.0 2.0 0.00 0.00 0.00 81 1015.2
20260510031918 51 309 0.0 2.0 0.00 0.00 0.00 81 1015.2
20260510031421 51 305 0.0 0.0 0.00 0.00 0.00 81 1015.2
20260510030912 51 284 0.0 0.0 0.00 0.00 0.00 81 1015.4
20260510030431 51 300 0.0 0.0 0.00 0.00 0.00 81 1015.4
20260510025929 51 299 0.0 0.0 0.00 0.00 0.00 81 1015.4
20260510025414 51 307 0.0 0.0 0.00 0.00 0.00 80 1015.4
20260510024910 51 315 0.0 0.0 0.00 0.00 0.00 80 1015.5
20260510024444 51 317 0.0 0.0 0.00 0.00 0.00 80 1015.5
20260510023923 51 314 0.0 1.0 0.00 0.00 0.00 80 1015.6
20260510023424 51 307 0.0 1.0 0.00 0.00 0.00 79 1015.5
20260510022912 51 315 0.0 0.0 0.00 0.00 0.00 79 1015.5
20260510022429 51 291 0.0 0.0 0.00 0.00 0.00 79 1015.5
20260510021950 51 307 0.0 0.0 0.00 0.00 0.00 78 1015.4
20260510021435 51 301 0.0 0.0 0.00 0.00 0.00 78 1015.6
20260510020905 52 295 0.0 2.0 0.00 0.00 0.00 77 1015.5
20260510020412 52 290 0.0 2.0 0.00 0.00 0.00 77 1015.5
20260510015924 52 298 0.0 0.0 0.00 0.00 0.00 77 1015.5
20260510015408 52 311 0.0 0.0 0.00 0.00 0.00 77 1015.5
20260510014920 52 309 0.0 0.0 0.00 0.00 0.00 77 1015.6
20260510014418 52 320 0.0 0.0 0.00 0.00 0.00 76 1015.6
20260510013919 52 304 0.0 2.0 0.00 0.00 0.00 76 1015.7
20260510013543 52 300 0.0 2.0 0.00 0.00 0.00 76 1015.7
20260510013105 52 321 0.0 1.0 0.00 0.00 0.00 76 1015.8
20260510012431 52 319 0.0 1.0 0.00 0.00 0.00 76 1015.8
20260510011910 52 279 0.0 0.0 0.00 0.00 0.00 75 1015.8
20260510011424 52 278 0.0 0.0 0.00 0.00 0.00 75 1015.9
20260510010935 52 293 0.0 0.0 0.00 0.00 0.00 75 1015.9
20260510010436 52 290 0.0 0.0 0.00 0.00 0.00 75 1015.9
20260510005942 52 291 0.0 0.0 0.00 0.00 0.00 74 1015.9
20260510005407 53 274 0.0 0.0 0.00 0.00 0.00 74 1016.0
20260510004934 53 275 0.0 1.0 0.00 0.00 0.00 74 1016.0
20260510004425 53 275 0.0 1.0 0.00 0.00 0.00 74 1016.0
20260510003914 53 326 0.0 2.0 0.00 0.00 0.00 74 1016.0
20260510003421 53 291 0.0 2.0 0.00 0.00 0.00 73 1016.0
20260510002915 53 306 0.0 0.0 0.00 0.00 0.00 73 1016.1
20260510002411 53 304 0.0 0.0 0.00 0.00 0.00 73 1016.1
20260510001917 53 315 0.0 0.0 0.00 0.00 0.00 73 1016.2
20260510001435 54 319 0.0 0.0 0.00 0.00 0.00 72 1016.2
20260510000921 54 328 0.0 0.0 0.00 0.00 0.00 72 1016.2
20260510000418 54 328 0.0 0.0 0.00 0.00 0.00 72 1016.2
20260509235910 54 328 0.0 0.0 0.00 0.00 0.00 72 1016.2
20260509235422 54 307 0.0 0.0 0.00 0.00 0.00 72 1016.3
20260509234913 54 293 0.0 0.0 0.00 0.00 0.00 71 1016.3
20260509234418 55 307 0.0 0.0 0.00 0.00 0.00 71 1016.3
20260509233929 55 288 0.0 0.0 0.00 0.00 0.00 70 1016.3
20260509233422 55 293 0.0 0.0 0.00 0.00 0.00 70 1016.4
20260509232905 55 293 0.0 0.0 0.00 0.00 0.00 69 1016.3
20260509232419 55 291 0.0 0.0 0.00 0.00 0.00 69 1016.4
20260509232046 55 297 0.0 0.0 0.00 0.00 0.00 69 1016.5
20260509231417 55 299 0.0 0.0 0.00 0.00 0.00 69 1016.5
20260509230917 55 299 0.0 0.0 0.00 0.00 0.00 69 1016.5
20260509230433 55 300 0.0 0.0 0.00 0.00 0.00 69 1016.6
20260509225931 55 276 0.0 0.0 0.00 0.00 0.00 69 1016.6
20260509225415 55 268 0.0 0.0 0.00 0.00 0.00 69 1016.5
20260509224908 56 269 0.0 0.0 0.00 0.00 0.00 69 1016.4
20260509224413 56 286 0.0 0.0 0.00 0.00 0.00 69 1016.4
20260509223958 56 301 0.0 0.0 0.00 0.00 0.00 69 1016.4
20260509223429 56 326 0.0 0.0 0.00 0.00 0.00 69 1016.3
20260509222919 56 326 0.0 0.0 0.00 0.00 0.00 68 1016.4
20260509222436 56 314 0.0 0.0 0.00 0.00 0.00 68 1016.5
20260509221927 56 298 0.0 0.0 0.00 0.00 0.00 68 1016.5
20260509221422 56 299 0.0 0.0 0.00 0.00 0.00 68 1016.5
20260509220936 56 290 0.0 0.0 0.00 0.00 0.00 67 1016.5
20260509220422 57 296 0.0 0.0 0.00 0.00 0.00 67 1016.4
20260509215942 57 285 0.0 0.0 0.00 0.00 0.00 67 1016.5
20260509215432 57 285 0.0 0.0 0.00 0.00 0.00 67 1016.5
20260509214933 57 307 0.0 0.0 0.00 0.00 0.00 67 1016.5
20260509214441 57 296 0.0 0.0 0.00 0.00 0.00 67 1016.5
20260509213945 57 296 0.0 0.0 0.00 0.00 0.00 67 1016.4
20260509213413 57 285 0.0 0.0 0.00 0.00 0.00 67 1016.5
20260509212905 58 297 0.0 0.0 0.00 0.00 0.00 66 1016.5
20260509212420 58 297 0.0 0.0 0.00 0.00 0.00 66 1016.6
20260509211924 58 297 0.0 0.0 0.00 0.00 0.00 66 1016.6
20260509211437 58 297 0.0 0.0 0.00 0.00 0.00 65 1016.6
20260509210908 58 301 0.0 0.0 0.00 0.00 0.00 65 1016.5
20260509210436 58 303 0.0 0.0 0.00 0.00 0.00 66 1016.4
20260509205920 58 347 0.0 0.0 0.00 0.00 0.00 65 1016.3
20260509205442 58 2 0.0 0.0 0.00 0.00 0.00 65 1016.3
20260509204940 58 324 0.0 1.0 0.00 0.00 0.00 65 1016.2
20260509204420 58 300 0.0 1.0 0.00 0.00 0.00 65 1016.3
20260509203912 59 300 0.0 0.0 0.00 0.00 0.00 65 1016.4
20260509203427 59 299 0.0 0.0 0.00 0.00 0.00 64 1016.4
20260509202908 59 307 0.0 0.0 0.00 0.00 0.00 64 1016.5
20260509202416 59 300 0.0 2.0 0.00 0.00 0.00 64 1016.4
20260509201916 59 307 0.0 2.0 0.00 0.00 0.00 63 1016.5
20260509201409 60 297 0.0 2.0 0.00 0.00 0.00 63 1016.4
20260509200505 60 297 0.0 0.0 0.00 0.00 0.00 62 1016.3
20260509195925 60 297 0.0 1.0 0.00 0.00 0.00 62 1016.3
20260509195433 60 302 0.0 3.0 0.00 0.00 0.00 61 1016.2
20260509194933 61 302 1.0 3.0 0.00 0.00 0.00 61 1016.2
20260509194442 61 313 0.0 0.0 0.00 0.00 0.00 60 1016.1
20260509193944 61 322 0.0 0.0 0.00 0.00 0.00 59 1016.2
20260509193423 62 303 0.0 2.0 0.00 0.00 0.00 59 1016.1
20260509192920 62 278 0.0 2.0 0.00 0.00 0.00 58 1016.1
20260509192503 62 3 0.0 0.0 0.00 0.00 0.00 57 1016.1
20260509191915 63 303 0.0 0.0 0.00 0.00 0.00 56 1016.0
20260509191410 63 297 0.0 0.0 0.00 0.00 0.00 55 1015.9
20260509190908 64 292 0.0 0.0 0.00 0.00 0.00 54 1015.9
20260509190416 64 289 0.0 0.0 0.00 0.00 0.00 54 1016.0
20260509185452 65 297 0.0 0.0 0.00 0.00 0.00 53 1015.9
20260509184940 66 297 0.0 0.0 0.00 0.00 0.00 52 1015.9
20260509184430 66 297 0.0 0.0 0.00 0.00 0.00 52 1015.9
20260509183921 66 297 0.0 0.0 0.00 0.00 0.00 51 1015.9
20260509183422 67 299 0.0 0.0 0.00 0.00 0.00 51 1015.8
20260509182906 67 292 0.0 0.0 0.00 0.00 0.00 50 1015.7
20260509182419 67 306 0.0 1.0 0.00 0.00 0.00 49 1015.8
20260509181921 68 290 0.0 1.0 0.00 0.00 0.00 48 1015.8
20260509181413 68 274 0.0 0.0 0.00 0.00 0.00 48 1015.8
20260509180926 69 281 0.0 1.0 0.00 0.00 0.00 47 1015.8
20260509180424 69 299 0.0 1.0 0.00 0.00 0.00 47 1015.8
20260509175933 70 272 0.0 0.0 0.00 0.00 0.00 45 1015.9
20260509175412 69 272 0.0 1.0 0.00 0.00 0.00 47 1015.9
20260509174924 69 273 0.0 2.0 0.00 0.00 0.00 47 1015.9
20260509174430 69 289 0.0 3.0 0.00 0.00 0.00 47 1015.9
20260509173905 69 18 0.0 4.0 0.00 0.00 0.00 47 1015.9
20260509173428 69 341 0.0 5.0 0.00 0.00 0.00 47 1015.8
20260509172918 69 343 1.0 6.0 0.00 0.00 0.00 48 1015.7
20260509172433 69 316 2.0 6.0 0.00 0.00 0.00 47 1015.7
20260509171916 70 333 2.0 6.0 0.00 0.00 0.00 46 1015.7
20260509171418 70 257 0.0 0.0 0.00 0.00 0.00 45 1015.6
20260509170919 70 270 0.0 2.0 0.00 0.00 0.00 44 1015.5
20260509170417 70 14 0.0 4.0 0.00 0.00 0.00 44 1015.6
20260509165913 70 286 2.0 4.0 0.00 0.00 0.00 46 1015.6
20260509165425 70 341 1.0 4.0 0.00 0.00 0.00 46 1015.7
20260509164910 70 304 2.0 4.0 0.00 0.00 0.00 46 1015.7
20260509164423 70 299 2.0 5.0 0.00 0.00 0.00 46 1015.8
20260509163927 70 358 2.0 5.0 0.00 0.00 0.00 46 1015.8
20260509163417 71 285 2.0 4.0 0.00 0.00 0.00 45 1015.8
20260509162939 72 4 1.0 2.0 0.00 0.00 0.00 44 1015.9
20260509162420 72 209 0.0 3.0 0.00 0.00 0.00 44 1015.8
20260509161914 72 288 0.0 2.0 0.00 0.00 0.00 44 1015.8
20260509161418 72 285 0.0 3.0 0.00 0.00 0.00 43 1015.8
20260509160925 71 4 0.0 3.0 0.00 0.00 0.00 43 1015.8
20260509160431 71 273 0.0 2.0 0.00 0.00 0.00 44 1015.8
20260509155929 71 273 0.0 4.0 0.00 0.00 0.00 46 1015.8
20260509155447 70 263 0.0 4.0 0.00 0.00 0.00 48 1015.8
20260509154437 70 308 0.0 1.0 0.00 0.00 0.00 46 1015.7
20260509153911 71 26 0.0 2.0 0.00 0.00 0.00 46 1015.8
20260509153426 72 232 0.0 2.0 0.00 0.00 0.00 44 1015.8
20260509152916 72 274 0.0 2.0 0.00 0.00 0.00 44 1015.9
20260509152427 72 44 0.0 4.0 0.00 0.00 0.00 45 1016.0
20260509151933 72 44 0.0 5.0 0.00 0.00 0.00 45 1016.0
20260509151436 72 247 1.0 5.0 0.00 0.00 0.00 42 1016.0
20260509150923 71 15 0.0 1.0 0.00 0.00 0.00 45 1016.0
20260509150439 71 15 0.0 1.0 0.00 0.00 0.00 45 1016.1
20260509145926 71 15 0.0 1.0 0.00 0.00 0.00 44 1016.0
20260509145415 72 271 0.0 0.0 0.00 0.00 0.00 42 1016.1
20260509144914 72 271 0.0 3.0 0.00 0.00 0.00 45 1016.0
20260509144419 73 271 1.0 3.0 0.00 0.00 0.00 40 1016.2
20260509143932 73 131 0.0 1.0 0.00 0.00 0.00 43 1016.1
20260509143409 73 131 0.0 0.0 0.00 0.00 0.00 47 1016.3
20260509142922 73 131 0.0 1.0 0.00 0.00 0.00 44 1016.3
20260509142413 73 131 0.0 2.0 0.00 0.00 0.00 43 1016.3
20260509141918 73 268 0.0 2.0 0.00 0.00 0.00 40 1016.3
20260509140929 73 82 0.0 1.0 0.00 0.00 0.00 48 1016.4
20260509140409 72 91 0.0 0.0 0.00 0.00 0.00 45 1016.5
20260509135916 72 311 0.0 1.0 0.00 0.00 0.00 47 1016.5
20260509135419 71 305 0.0 2.0 0.00 0.00 0.00 47 1016.5
20260509134907 70 322 0.0 4.0 0.00 0.00 0.00 48 1016.5
20260509134408 71 288 1.0 4.0 0.00 0.00 0.00 45 1016.5
20260509133922 71 18 0.0 0.0 0.00 0.00 0.00 45 1016.6
20260509133433 71 18 0.0 2.0 0.00 0.00 0.00 46 1016.6
20260509132921 71 18 0.0 2.0 0.00 0.00 0.00 46 1016.6
20260509132435 71 23 0.0 2.0 0.00 0.00 0.00 46 1016.7
20260509131909 72 281 0.0 0.0 0.00 0.00 0.00 45 1016.8
20260509131408 71 49 0.0 0.0 0.00 0.00 0.00 48 1016.9
20260509130937 71 49 0.0 1.0 0.00 0.00 0.00 45 1016.9
20260509130423 70 49 0.0 3.0 0.00 0.00 0.00 49 1017.0
20260509125920 70 15 0.0 3.0 0.00 0.00 0.00 48 1017.1
20260509124919 69 310 1.0 4.0 0.00 0.00 0.00 48 1017.2
20260509124450 69 300 2.0 4.0 0.00 0.00 0.00 49 1017.3
20260509123918 69 16 1.0 6.0 0.00 0.00 0.00 48 1017.2
20260509122916 70 5 0.0 1.0 0.00 0.00 0.00 46 1017.4
20260509122419 71 6 0.0 1.0 0.00 0.00 0.00 46 1017.4
20260509121911 71 278 0.0 1.0 0.00 0.00 0.00 46 1017.4
20260509121445 71 278 0.0 1.0 0.00 0.00 0.00 45 1017.5
20260509115912 69 278 0.0 1.0 0.00 0.00 0.00 47 1017.7
20260509114931 70 249 1.0 2.0 0.00 0.00 0.00 44 1017.7
20260509114414 70 264 0.0 2.0 0.00 0.00 0.00 48 1017.7
20260509113939 69 279 0.0 1.0 0.00 0.00 0.00 47 1017.7
20260509113431 69 274 0.0 2.0 0.00 0.00 0.00 47 1017.8
20260509112911 68 335 0.0 1.0 0.00 0.00 0.00 49 1017.9
20260509112425 68 335 0.0 1.0 0.00 0.00 0.00 50 1017.9
20260509111910 68 335 0.0 2.0 0.00 0.00 0.00 47 1018.0
20260509111419 69 340 0.0 2.0 0.00 0.00 0.00 48 1018.0
20260509083920 60 278 0.0 0.0 0.00 0.00 0.00 69 1018.4
20260509083421 59 278 0.0 0.0 0.00 0.00 0.00 71 1018.5
20260509082947 59 278 0.0 0.0 0.00 0.00 0.00 70 1018.5
20260509082406 58 278 0.0 0.0 0.00 0.00 0.00 72 1018.6
20260509081946 58 278 0.0 0.0 0.00 0.00 0.00 71 1018.6
20260509081427 58 278 0.0 0.0 0.00 0.00 0.00 73 1018.8
20260509080918 57 278 0.0 0.0 0.00 0.00 0.00 72 1018.8
20260509080418 57 278 0.0 0.0 0.00 0.00 0.00 74 1018.9
20260509075915 57 278 0.0 0.0 0.00 0.00 0.00 74 1018.9
20260509075408 57 278 0.0 0.0 0.00 0.00 0.00 74 1018.9
20260509074937 57 278 0.0 0.0 0.00 0.00 0.00 75 1019.0
20260509074430 56 278 0.0 0.0 0.00 0.00 0.00 76 1019.0
20260509073930 56 278 0.0 1.0 0.00 0.00 0.00 76 1019.0
20260509073417 56 278 0.0 1.0 0.00 0.00 0.00 76 1019.0
20260509072913 56 278 0.0 0.0 0.00 0.00 0.00 76 1019.0
20260509072442 56 278 0.0 0.0 0.00 0.00 0.00 77 1019.0
20260509071934 55 278 0.0 0.0 0.00 0.00 0.00 76 1019.0
20260509071418 55 278 0.0 0.0 0.00 0.00 0.00 77 1019.1
20260509070909 55 278 0.0 0.0 0.00 0.00 0.00 79 1019.1
20260509070435 54 278 0.0 0.0 0.00 0.00 0.00 80 1019.0
20260509065931 54 278 0.0 0.0 0.00 0.00 0.00 79 1018.9
20260509065419 54 278 0.0 0.0 0.00 0.00 0.00 81 1019.0
20260509064920 53 278 0.0 0.0 0.00 0.00 0.00 82 1019.0
20260509064426 53 278 0.0 0.0 0.00 0.00 0.00 88 1018.9
20260509063923 53 278 0.0 0.0 0.00 0.00 0.00 88 1018.8
20260509063417 53 278 0.0 0.0 0.00 0.00 0.00 89 1018.8
20260509062929 53 278 0.0 0.0 0.00 0.00 0.00 88 1018.8
20260509062413 53 278 0.0 0.0 0.00 0.00 0.00 89 1018.7
20260509061928 52 278 0.0 0.0 0.00 0.00 0.00 88 1018.7
20260509061412 52 278 0.0 0.0 0.00 0.00 0.00 89 1018.7
20260509060919 52 278 0.0 0.0 0.00 0.00 0.00 89 1018.7
20260509060445 52 278 0.0 0.0 0.00 0.00 0.00 88 1018.7
20260509055916 52 278 0.0 0.0 0.00 0.00 0.00 87 1018.7
20260509055420 51 278 0.0 0.0 0.00 0.00 0.00 85 1018.7
20260509054935 51 278 0.0 0.0 0.00 0.00 0.00 84 1018.6
20260509054423 51 278 0.0 0.0 0.00 0.00 0.00 86 1018.6
20260509053924 50 278 0.0 0.0 0.00 0.00 0.00 83 1018.6